PEGASUS DEB, 39308

Orbit data source: Space-Track

PEGASUS DEB, 39308 is space debris in LEO originally from a launch on Thu, 19 May 1994 UTC launched from the Air Force Western Test Range (AFWTR). Debris objects in space refer to the collection of defunct objects orbiting the Earth. Examples of debris include non-operational satellites, rocket bodies, and fragments generated from explosions, collisions, or faulty payload assembly.

Loading next visibility...
Identifier
39308, 1994-029AET
Orbit
LEO
Country
Flag of USUS
Related business
Manufacturer
Unknown
Mission
Spacecraft
Bus & Motor
Unknown
Mass
Unknown
Launch date (UTC)
1994-05-19 (32 years ago)
Launch vehicle
Unknown
Launch site
Air Force Western Test Range (AFWTR)
Object type
Payload
Rocket body
Debris
Shape & HBR
Unknown shape, 0.1 m
Radar Cross Section
Small (<0.1 m²)

Expand to show TLE details & history
Last TLE update: 1 day ago

TLE from 1 day ago
0 PEGASUS DEB
1 39308U 94029AET 26237.51002985  .00008256  00000-0  14896-2 0  9998
2 39308  81.9675 317.2270 0339231 175.9786 184.4263 14.35219773690664
Epoch: 2026-08-25T12:14Z
TLE epoch observation values (Epoch: 2026-08-25T12:14:26.579Z)
Latitude
0.00003°
Longitude
159.83991°
Altitude
1,019.304 km
Speed
7.217 km/s
True Right ascension
21h 08m 54s
True Declination
0° 00' 00"
Sunlit
Object was in full shadow at epoch
Visualization orbit readout
Latitude
Unknown
Longitude
Unknown
Altitude
Unknown
Speed
Unknown
Apparent Right ascension
Unknown
Apparent Declination
Unknown
Sunlit
N/A
Visualization observer readout
Local Sidereal Time
09:32:00
Azimuth
Unknown
Elevation
Unknown
Doppler factor
Unknown
Orbital elements
Apogee altitude
1,013.974 km
Perigee altitude
528.902 km
Semi-major axis
7,149.575 km
Eccentricity
0.03392
Inclination
81.9675°
RAAN
317.227°
Arg. of periapsis
175.9786°
True anomaly
184.13848°
Mean anomaly
184.4263°
Eccentric anomaly
184.2812°
Mean motion
3.59023 °/min
Orbital period
100.27 mins
BSTAR
0.0014896
Loading maneuver chart data...
Computing Atmospheric mass density...

Documentation

Showing up to 5 results
|